Tracking 32136 objects as of 12-Nov-2025
HD Live streaming from Space Station
objects crossing your sky now

STARLINK-30984

Track STARLINK-30984 now!
10-day predictions
STARLINK-30984 is classified as:


NORAD ID: 58480
Int'l Code: 2023-186H
Perigee: 565.1 km
Apogee: 567.2 km
Inclination: 43.0 °
Period: 95.8 minutes
Semi major axis: 6937 km
RCS: Unknown
Launch date: December 3, 2023
Source: United States (US)
Launch site: AIR FORCE EASTERN TEST RANGE (AFETR)
Your satellite tracking list
Your tracking list is empty




NASA's NSSDC Master Catalog

Two Line Element Set (TLE):
1 58480U 23186H   25315.13839855  .00003779  00000-0  29450-3 0  9992
2 58480  43.0036 351.1608 0001552 281.0835  78.9833 15.02555563108023
Source of the keplerian elements: AFSPC